Location: Unspecified
(52.1971°N, 0.0000°E)
Time: 17:58:30
(UTC+00:00)

YUBILEINY - Pass Details

Date: 18 December 2019
Orbit: 1478 x 1509 km, 82.5° (Epoch: 28 January)

Event Time Altitude Azimuth Distance (km) Brightness Sun altitude
Rises 06:46:40 0° 348° (NNW) 4,613 ? -11.0°
Reaches altitude 10° 06:49:38 10° 352° (N) 3,630 ? -10.6°
Maximum altitude 06:58:15 60° 72° (ENE) 1,667 ? -9.4°
Drops below altitude 10° 07:06:50 10° 152° (SSE) 3,623 ? -8.2°
Sets 07:09:47 0° 156° (SSE) 4,603 ? -7.8°
